Location: Corcelles
(46.1547°N, 4.7234°E)
Time: 04:43:02
(UTC+00:00)

Abrixas rocket - Pass Details

Date: 14 July 2020
Orbit: 339 x 347 km, 48.4° (Epoch: 06 August)

Event Time Altitude Azimuth Distance (km) Brightness Sun altitude
Rises 03:06:41 0° 286° (WNW) 2,125 5.5 -8.6°
Reaches altitude 10° 03:08:46 10° 278° (W) 1,283 4.4 -8.3°
Maximum altitude 03:11:27 37° 208° (SSW) 543 2.3 -8.0°
Drops below altitude 10° 03:14:08 10° 138° (SE) 1,277 4.7 -7.6°
Sets 03:16:12 0° 130° (SE) 2,113 5.9 -7.4°
